• In Österreich
  • Länderverzeichnis
  • Für 7 Tage
  • Wassertemperatur
  • Satellitenkarten
  • Wetterkarte
  • News
  • Widgets
  • user-avatar
    Anmelden

    Stündliche Wetter Kengtung

    Heute, 18 November, Samstag

    Zeit Temperatur Niederschläge Wind Luftdruck Luftfeuchtigkeit
    00:00 +20°C° 0 mm 0 m/S 700 mmHg 93%
    01:00 +19°C° 0 mm 0 m/S 700 mmHg 95%
    02:00 +19°C° 0 mm 0 m/S 700 mmHg 95%
    03:00 +19°C° 0 mm 0 m/S 700 mmHg 96%
    04:00 +19°C° 0 mm 0 m/S 700 mmHg 96%
    05:00 +19°C° 0 mm 0 m/S 700 mmHg 96%
    06:00 +18°C° 0 mm 0 m/S 700 mmHg 96%
    07:00 +19°C° 0 mm 0 m/S 700 mmHg 95%
    08:00 +22°C° 0 mm 0 m/S 701 mmHg 84%
    09:00 +25°C° 0 mm 0 m/S 701 mmHg 73%
    10:00 +27°C° 0 mm 0 m/S 702 mmHg 61%
    11:00 +31°C° 0 mm 1 m/S 701 mmHg 56%
    12:00 +32°C° 0 mm 1 m/S 701 mmHg 51%
    13:00 +33°C° 0 mm 1 m/S 701 mmHg 47%
    14:00 +32°C° 0 mm 1 m/S 700 mmHg 49%
    15:00 +32°C° 0 mm 1 m/S 700 mmHg 51%
    16:00 +32°C° 0 mm 1 m/S 699 mmHg 53%
    17:00 +29°C° 0 mm 1 m/S 699 mmHg 63%
    18:00 +25°C° 0 mm 0 m/S 699 mmHg 72%
    19:00 +22°C° 0 mm 0 m/S 699 mmHg 81%
    20:00 +21°C° 0 mm 0 m/S 699 mmHg 83%
    21:00 +21°C° 0 mm 0 m/S 700 mmHg 86%
    22:00 +20°C° 0 mm 0 m/S 700 mmHg 89%
    23:00 +20°C° 0 mm 0 m/S 700 mmHg 90%

    Morgen, 19 November, Sonntag

    Zeit Temperatur Niederschläge Wind Luftdruck Luftfeuchtigkeit
    00:00 +19°C° 0 mm 0 m/S 700 mmHg 92%
    01:00 +19°C° 0 mm 0 m/S 700 mmHg 93%
    02:00 +19°C° 0 mm 0 m/S 700 mmHg 94%
    03:00 +19°C° 0 mm 0 m/S 700 mmHg 94%
    04:00 +18°C° 0 mm 0 m/S 700 mmHg 95%
    05:00 +18°C° 0 mm 0 m/S 700 mmHg 95%
    06:00 +18°C° 0 mm 0 m/S 700 mmHg 95%
    07:00 +18°C° 0 mm 0 m/S 700 mmHg 95%
    08:00 +21°C° 0 mm 0 m/S 701 mmHg 83%
    09:00 +25°C° 0 mm 0 m/S 702 mmHg 71%
    10:00 +28°C° 0 mm 0 m/S 702 mmHg 59%
    11:00 +29°C° 0 mm 0 m/S 702 mmHg 54%
    12:00 +30°C° 0 mm 0 m/S 701 mmHg 49%
    13:00 +33°C° 0 mm 1 m/S 701 mmHg 45%
    14:00 +33°C° 0 mm 1 m/S 700 mmHg 47%
    15:00 +32°C° 0 mm 1 m/S 700 mmHg 49%
    16:00 +32°C° 0 mm 1 m/S 699 mmHg 52%
    17:00 +29°C° 0 mm 1 m/S 699 mmHg 61%
    18:00 +25°C° 0 mm 0 m/S 700 mmHg 70%
    19:00 +22°C° 0 mm 0 m/S 700 mmHg 79%
    20:00 +22°C° 0 mm 0 m/S 700 mmHg 82%
    21:00 +21°C° 0 mm 0 m/S 701 mmHg 84%
    22:00 +21°C° 0 mm 0 m/S 701 mmHg 86%
    23:00 +20°C° 0 mm 0 m/S 701 mmHg 88%

    übermorgen, 20 November, Montag

    Zeit Temperatur Niederschläge Wind Luftdruck Luftfeuchtigkeit
    00:00 +20°C° 0 mm 0 m/S 701 mmHg 89%
    01:00 +19°C° 0 mm 0 m/S 701 mmHg 90%
    02:00 +19°C° 0 mm 0 m/S 701 mmHg 91%
    03:00 +19°C° 0 mm 0 m/S 700 mmHg 92%
    04:00 +19°C° 0 mm 0 m/S 700 mmHg 93%
    05:00 +19°C° 0 mm 0 m/S 700 mmHg 94%
    06:00 +19°C° 0 mm 0 m/S 701 mmHg 94%
    07:00 +18°C° 0 mm 0 m/S 701 mmHg 94%
    08:00 +22°C° 0 mm 0 m/S 702 mmHg 83%
    09:00 +25°C° 0 mm 0 m/S 703 mmHg 73%
    10:00 +28°C° 0 mm 0 m/S 703 mmHg 62%
    11:00 +29°C° 0,1 mm 0 m/S 703 mmHg 58%
    12:00 +30°C° 0,1 mm 0 m/S 702 mmHg 55%
    13:00 +33°C° 0,1 mm 1 m/S 701 mmHg 51%
    14:00 +32°C° 0,2 mm 1 m/S 701 mmHg 54%
    15:00 +32°C° 0,2 mm 1 m/S 700 mmHg 56%
    16:00 +31°C° 0,2 mm 1 m/S 699 mmHg 59%
    17:00 +27°C° 0,1 mm 0 m/S 699 mmHg 68%
    18:00 +24°C° 0,1 mm 0 m/S 699 mmHg 76%
    19:00 +22°C° 0,1 mm 0 m/S 700 mmHg 85%
    20:00 +22°C° 0 mm 0 m/S 700 mmHg 87%
    21:00 +21°C° 0 mm 0 m/S 701 mmHg 89%
    22:00 +21°C° 0 mm 0 m/S 701 mmHg 92%
    23:00 +20°C° 0 mm 0 m/S 701 mmHg 93%

    21 November, Dienstag

    Zeit Temperatur Niederschläge Wind Luftdruck Luftfeuchtigkeit
    00:00 +20°C° 0 mm 0 m/S 701 mmHg 94%
    01:00 +20°C° 0 mm 0 m/S 700 mmHg 95%
    02:00 +19°C° 0 mm 0 m/S 700 mmHg 96%
    03:00 +19°C° 0 mm 0 m/S 700 mmHg 96%
    04:00 +19°C° 0 mm 0 m/S 700 mmHg 97%
    05:00 +19°C° 0 mm 0 m/S 700 mmHg 97%
    06:00 +19°C° 0 mm 0 m/S 700 mmHg 97%
    07:00 +19°C° 0 mm 0 m/S 701 mmHg 97%
    08:00 +22°C° 0 mm 0 m/S 701 mmHg 88%
    09:00 +24°C° 0 mm 0 m/S 702 mmHg 79%
    10:00 +27°C° 0 mm 0 m/S 703 mmHg 70%
    11:00 +28°C° 0,3 mm 0 m/S 702 mmHg 67%
    12:00 +30°C° 0,3 mm 1 m/S 701 mmHg 64%
    13:00 +31°C° 0,3 mm 1 m/S 701 mmHg 61%
    14:00 +31°C° 0,4 mm 1 m/S 700 mmHg 63%
    15:00 +30°C° 0,4 mm 1 m/S 699 mmHg 66%
    16:00 +28°C° 0,4 mm 0 m/S 699 mmHg 68%
    17:00 +26°C° 0,6 mm 0 m/S 699 mmHg 76%
    18:00 +23°C° 0,6 mm 0 m/S 699 mmHg 85%
    19:00 +21°C° 0,6 mm 0 m/S 699 mmHg 94%
    20:00 +21°C° 0,5 mm 0 m/S 700 mmHg 94%
    21:00 +20°C° 0,5 mm 0 m/S 700 mmHg 95%
    22:00 +20°C° 0,5 mm 0 m/S 701 mmHg 96%
    23:00 +20°C° 0,2 mm 0 m/S 701 mmHg 96%

    22 November, Mittwoch

    Zeit Temperatur Niederschläge Wind Luftdruck Luftfeuchtigkeit
    00:00 +19°C° 0,2 mm 0 m/S 700 mmHg 97%
    01:00 +19°C° 0,2 mm 0 m/S 700 mmHg 97%
    02:00 +19°C° 0,2 mm 0 m/S 700 mmHg 97%
    03:00 +19°C° 0,2 mm 0 m/S 700 mmHg 98%
    04:00 +19°C° 0,2 mm 0 m/S 699 mmHg 98%
    05:00 +19°C° 0 mm 0 m/S 700 mmHg 98%
    06:00 +19°C° 0 mm 0 m/S 700 mmHg 98%
    07:00 +19°C° 0 mm 0 m/S 700 mmHg 98%
    08:00 +21°C° 0 mm 0 m/S 701 mmHg 90%
    09:00 +23°C° 0 mm 0 m/S 702 mmHg 83%
    10:00 +25°C° 0 mm 0 m/S 702 mmHg 75%
    11:00 +26°C° 0,1 mm 0 m/S 701 mmHg 71%
    12:00 +28°C° 0,1 mm 0 m/S 701 mmHg 66%
    13:00 +29°C° 0,1 mm 0 m/S 700 mmHg 62%
    14:00 +29°C° 0,3 mm 0 m/S 699 mmHg 63%
    15:00 +28°C° 0,3 mm 0 m/S 699 mmHg 64%
    16:00 +28°C° 0,3 mm 0 m/S 698 mmHg 65%
    17:00 +26°C° 0,3 mm 0 m/S 698 mmHg 74%
    18:00 +23°C° 0,3 mm 0 m/S 699 mmHg 82%
    19:00 +21°C° 0,3 mm 0 m/S 699 mmHg 90%
    20:00 +21°C° 0,4 mm 0 m/S 700 mmHg 92%
    21:00 +20°C° 0,4 mm 0 m/S 700 mmHg 94%
    22:00 +20°C° 0,4 mm 0 m/S 700 mmHg 95%
    23:00 +20°C° 0,5 mm 0 m/S 700 mmHg 96%

    23 November, Donnerstag

    Zeit Temperatur Niederschläge Wind Luftdruck Luftfeuchtigkeit
    00:00 +19°C° 0,5 mm 0 m/S 700 mmHg 96%
    01:00 +19°C° 0,5 mm 0 m/S 700 mmHg 97%
    02:00 +19°C° 0,3 mm 0 m/S 700 mmHg 97%
    03:00 +19°C° 0,3 mm 0 m/S 699 mmHg 97%
    04:00 +19°C° 0,3 mm 0 m/S 699 mmHg 98%
    05:00 +19°C° 0,1 mm 0 m/S 700 mmHg 98%
    06:00 +19°C° 0,1 mm 0 m/S 700 mmHg 98%
    07:00 +19°C° 0,1 mm 0 m/S 700 mmHg 98%
    08:00 +21°C° 0 mm 0 m/S 701 mmHg 91%
    09:00 +23°C° 0 mm 0 m/S 702 mmHg 84%
    10:00 +25°C° 0 mm 0 m/S 702 mmHg 78%
    11:00 +26°C° 0,2 mm 0 m/S 702 mmHg 73%
    12:00 +27°C° 0,2 mm 0 m/S 701 mmHg 68%
    13:00 +28°C° 0,2 mm 0 m/S 700 mmHg 64%
    14:00 +28°C° 0,4 mm 0 m/S 700 mmHg 66%
    15:00 +27°C° 0,4 mm 0 m/S 700 mmHg 68%
    16:00 +27°C° 0,4 mm 0 m/S 699 mmHg 70%
    17:00 +24°C° 0,3 mm 0 m/S 699 mmHg 77%
    18:00 +22°C° 0,3 mm 0 m/S 700 mmHg 85%
    19:00 +20°C° 0,3 mm 0 m/S 700 mmHg 93%
    20:00 +20°C° 0,2 mm 0 m/S 701 mmHg 94%
    21:00 +20°C° 0,2 mm 0 m/S 701 mmHg 95%
    22:00 +19°C° 0,2 mm 0 m/S 701 mmHg 96%
    23:00 +19°C° 0,1 mm 0 m/S 701 mmHg 96%
    Mehr zeigen